OBJECT B

Satellite information

Favourite Embed

Satellite Type and Status

UNKNOWNDECAYED

Key statistics

Satellite OBJECT B at a glance.

Uptime

364

Days in orbit

Revolutions

≈ 16.4

Per day

Orbit

SSO

Sun Synchronous Orbit

Inclination

97.5

Latest

Satellite identification and parameters

Extended collection of information and parameters for OBJECT B.

Object identification

Identified? True

Debris? False

Object name: OBJECT B

International designator: 2024-095B

Object number (NORAD): 59811

Object ID (CCSDS): 59811

Country: PEOPLES REPUBLIC OF CHINA (PRC)

Current information (Y/N): Y

RCS size: MEDIUM

Orbital parameters

Decay date: May 20, 2025

Period: 88.049 minutes

Inclination: 97.5491 deg

SMA: 6556.07 km

Apoapsis: 185.494 km

Periapsis: 170.376 km

RAAN: 236.0637 deg

Eccentricy: 0.001153

Argument of periapsis: 249.2938 deg

Mean anomaly: 110.7123 deg

Mean motion: 16.3545034 rev/day

Mean motion (dot): 0.01703373 rev/day2

B* drag term: 0.00022432 1/REarth

Two-line elements (TLE)

Creation date: May 15, 2025, 5:33 p.m.

Reference frame: TEME

Reference center: EARTH

Epoch: May 14, 2025, 7:42 p.m. UTC

TLE line 0: 0 OBJECT B

TLE line 1: 1 59811U 24095B 25134.82128268 .01703373 26156-5 22432-3 0 9991

TLE line 2: 2 59811 97.5491 236.0637 0011530 249.2938 110.7123 16.35450340 55629

Live tracking on map

Satellite OBJECT B has decayed and is no longer in orbit. No tracking available.

In-orbit conjunctions

Satellite OBJECT B has decayed and is no longer in orbit. No conjunctions available.

Associated space launch

Carried 4 satellites to SSO: * Wuhan-1 * Chutian 001 * Tianyan 22 * Lingque-3 01

OBJECT B was lifted into orbit during the mission ‘Kuaizhou-11 | Wuhan-1 and others’, on board a Kuaizhou-11 space rocket.

The launch took place on May 21, 2024, 4:15 a.m. from Launch Area 95A.

For more information about the launch, click the button.

Launch to space Kuaizhou-11 | Wuhan-1 and others
Kuaizhou-11 | Wuhan-1 and others

Agency: N/A

Status: Launch Successful

Launch date: May 21, 2024, 4:15 a.m. UTC

Rocket: Kuaizhou-11

Launch pad: Launch Area 95A

Location: Jiuquan Satellite Launch Center, People's Republic of China

...

Latest news about this satellite

There are no fresh news available about this satellite. Check back as we update our databases every day.


Newsletter sign-up

Weekly statistics, charts and insights to help you stay on top of the space industry.